Location: Unspecified
(49.9820°N, 20.4363°E)
Time: 13:43:05
(UTC+02:00)

ISS - Pass Details

Date: 21 May 2018
Orbit: 402 x 407 km, 51.6° (Epoch: 20 May)

Event Time Altitude Azimuth Distance (km) Brightness Sun altitude
Rises 22:16:22 0° 232° (SW) 2,312 0.0 -13.3°
Reaches altitude 10° 22:18:29 10° 226° (SW) 1,454 -1.1 -13.5°
Maximum altitude 22:21:37 45° 152° (SSE) 560 -3.6 -13.8°
Drops below altitude 10° 22:24:46 10° 79° (ENE) 1,459 -1.2 -14.0°
Sets 22:26:53 0° 73° (ENE) 2,321 -0.1 -14.2°
